Simultaneous Nadir Overpasses (SNOs) Predictions

Prediction of SNOs between AQUA and NPP Satellite Orbit:

Table of predicted SNOs for the next 14.0 days since TLE Epoch: 10/7/2016
Index Date (AQUA) Time (AQUA) Lat,Lon (AQUA) SZA (AQUA ) Date (NPP) Time (NPP) Lat,Lon (NPP) SZA (NPP ) Distance(km) Time Diff (sec)
1 10/09/2016 20:59:31 73.79, 98.46 105.38 10/09/2016 20:58:22 73.78, 98.41 105.46 1.80 69
2 10/09/2016 21:48:29 -75.29, -90.23 76.18 10/09/2016 21:48:37 -75.28, -90.31 76.16 2.49 8
3 10/12/2016 13:15:40 74.76,-143.38 105.32 10/12/2016 13:14:57 74.76,-143.34 105.35 1.35 43
4 10/12/2016 14:04:42 -76.02, 27.78 76.02 10/12/2016 14:05:16 -76.02, 27.83 76.07 1.20 34
5 10/15/2016 05:32:01 75.14, -26.51 105.85 10/15/2016 05:31:45 75.14, -26.50 105.86 0.12 16
6 10/15/2016
